Flag for U.S.A. Weather past 2 weeks in Hampton, Virginia, U.S.A.

Now
67 °F

Sunny.


Feels Like: 67 °F
Forecast: 62 / 71 °F
Wind: 5 mph from West

Location: Langley Air Force Base

Current Time: May 22, 2015 at 8:44:55 PM

Latest Report: May 22, 2015 at 7:58 PM


Visibility: 10 mi

Pressure: 30.19 "Hg

Humidity: 52%

Dew point: 48 °F

Location of HamptonLocation

Historic Weather in Hampton — Graph

°F

Hampton temperature yesterday

Maximum temperature yesterday: 64 °F (at 1:58 AM)
Minimum temperature yesterday: 56 °F (at 11:58 PM)
Average temperature yesterday: 62 °F

Past Weeks' High & Low Weather Summary

 TemperatureHumidityPressure
High88 °F (May 12, 2:58 PM)100% (May 9, 12:03 AM)30.45 "Hg (May 9, 12:03 AM)
Low50 °F (May 15, 4:58 AM)36% (May 22, 1:58 PM)29.81 "Hg (May 21, 5:03 PM)
Average69 °F76%30.11 "Hg
* Reported May 7 7:58 PM — May 22 7:58 PM, Hampton, Weather by CustomWeather, © 2015

Note: Actual official high and low records may vary slightly from our data, if they occured in-between our weather recording intervals... More about our weather records

Advertising

Hampton weather history for previous 24 hours

 ConditionsComfort  
Time TempWeatherWind HumidityBarometerVisibility
7:58 PM
Fri, May 22
67 °FSunny.5 mph52%30.19 "Hg10 mi
6:58 PM71 °FSunny.8 mph43%30.17 "Hg10 mi
5:58 PM72 °FSunny.10 mph41%30.16 "Hg10 mi
4:58 PM72 °FSunny.13 mph40%30.16 "Hg10 mi
3:58 PM71 °FSunny.8 mph41%30.16 "Hg9 mi
2:58 PM71 °FSunny.10 mph44%30.15 "Hg10 mi
1:58 PM70 °FSunny.6 mph36%30.15 "Hg9 mi
12:58 PM69 °FSunny.2 mph38%30.15 "Hg10 mi
11:58 AM68 °FSunny.10 mph42%30.15 "Hg9 mi
10:58 AM65 °FSunny.9 mph48%30.14 "Hg10 mi
9:58 AM63 °FSunny.9 mph52%30.13 "Hg10 mi
8:58 AM60 °FSunny.10 mph58%30.12 "Hg10 mi
7:58 AM57 °FSunny.15 mph66%30.10 "Hg10 mi
6:58 AM55 °FSunny.13 mph75%30.07 "Hg10 mi
5:58 AM53 °FClear.9 mph83%30.06 "Hg10 mi
4:58 AM52 °FClear.7 mph91%30.03 "Hg10 mi
3:58 AM53 °FClear.8 mph92%29.99 "Hg10 mi
2:58 AM54 °FPassing clouds.8 mph89%29.97 "Hg10 mi
1:58 AM56 °FOvercast.10 mph87%29.96 "Hg10 mi
12:58 AM55 °FOvercast.9 mph88%29.96 "Hg10 mi
11:58 PM
Thu, May 21
56 °FLow clouds.8 mph89%29.93 "Hg10 mi
10:58 PM57 °FLow clouds.10 mph90%29.93 "Hg10 mi
9:58 PM58 °FOvercast.12 mph89%29.90 "Hg10 mi
8:58 PM58 °FOvercast.10 mph87%29.88 "Hg10 mi
Weather by CustomWeather, © 2015

See weather overviewHow to use our weather pages